Theta_e
280 279 278 277 277 277 276 272 272 275 275 276 275 280 280 280 279 280 280 281 281 281 281 281 282 281 281 280 281 282 282 283
279 278 274 273 272 272 271 268 271 271 272 274 275 280 279 279 279 279 280 280 280 281 281 281 281 281 281 281 279 280 281 282
275 271 268 268 266 266 265 264 267 269 271 273 276 279 278 278 279 280 279 280 280 280 281 281 281 280 278 278 280 280 279 280
270 269 267 265 264 264 264 266 268 268 270 271 271 271 277 278 279 279 279 280 280 281 280 280 280 280 280 280 280 279 279 280
273 272 270 267 265 266 267 266 267 267 268 270 269 270 278 278 278 279 280 280 280 281 280 280 281 282 282 281 272 273 273 278
271 270 267 265 267 265 266 265 265 265 267 269 268 268 273 277 278 279 280 280 280 276 273 275 273 276 275 274 270 271 272 273
270 270 270 269 269 268 268 267 263 266 267 266 264 267 269 270 271 270 271 270 269 270 270 271 275 281 284 279 269 269 272 273
272 273 274 273 276 271 269 266 267 269 270 270 270 272 272 273 273 271 269 269 270 270 270 271 270 281 283 283 273 271 271 273
274 277 276 273 273 275 275 274 272 271 272 273 273 273 274 274 273 272 271 272 273 274 274 275 277 281 283 283 278 276 276 276
274 273 274 273 273 273 272 273 274 273 273 274 274 274 274 274 273 272 272 273 274 276 275 275 276 280 281 282 278 277 277 277
272 272 273 273 274 275 275 274 273 275 276 276 275 275 274 274 274 274 275 276 276 276 275 276 276 279 281 281 279 276 275 276
271 271 271 273 274 273 273 272 275 276 276 277 276 275 275 275 274 274 273 274 272 273 273 273 275 276 281 282 279 278 276 276
273 273 273 275 274 274 273 275 275 275 275 275 274 275 276 272 272 271 271 270 270 268 271 273 274 277 280 282 282 281 277 276
272 272 273 273 273 272 273 273 272 271 271 271 272 274 274 271 271 270 268 270 270 270 271 272 273 273 280 282 282 282 278 275
271 270 270 271 272 271 271 271 269 269 270 272 270 271 270 273 274 272 271 270 271 270 270 271 271 271 271 272 272 276 276 277
270 269 269 270 270 269 270 270 269 269 270 271 272 271 272 273 273 273 274 274 272 271 271 268 270 272 277 275 269 269 273 272
268 268 268 269 268 267 268 268 267 268 269 269 270 271 273 273 273 278 280 280 280 281 278 275 278 281 282 282 282 282 282 277
266 267 266 266 266 266 266 267 267 267 268 268 270 271 271 272 272 272 276 279 280 281 282 283 282 282 282 282 282 283 283 277
262 262 262 263 263 265 265 265 266 267 267 268 269 269 270 271 271 271 271 271 273 276 278 280 280 281 280 280 280 274 273 268
258 258 259 260 261 263 265 265 264 267 268 269 267 267 268 267 268 265 266 267 269 270 274 273 276 276 276 277 272 270 270 270
Wind_Speed
4 4 3 2 1 1 2 1 1 3 3 3 4 5 4 3 4 5 5 5 6 6 7 7 6 6 6 6 8 9 8 7
5 2 2 1 1 2 3 3 4 3 3 3 5 4 4 4 5 5 5 5 6 6 6 7 7 6 6 8 8 10 10 9
5 3 3 4 3 4 4 4 5 3 4 4 4 4 4 4 4 5 5 4 6 6 6 6 7 7 6 8 8 8 9 9
5 5 5 4 4 5 5 6 5 5 4 4 5 4 5 4 5 5 5 5 6 6 5 6 7 7 6 6 8 8 8 8
7 7 7 5 5 5 6 6 5 5 4 5 5 5 4 4 5 5 5 5 5 5 5 6 6 6 5 5 5 6 5 6
6 6 5 5 5 6 6 5 4 4 4 7 5 5 4 5 5 5 5 4 4 4 5 6 4 4 4 2 4 5 6 5
6 6 6 5 6 5 6 6 4 5 7 6 4 4 5 5 6 4 5 5 4 5 5 6 4 11 11 7 3 4 4 5
8 7 6 6 6 6 6 3 5 6 6 6 5 5 6 5 5 5 5 4 5 6 5 6 5 11 11 10 3 4 5 5
7 7 7 4 6 5 4 4 5 6 7 6 5 6 5 5 6 5 3 6 5 6 6 5 6 11 11 11 4 4 5 5
6 5 6 7 7 5 4 4 4 7 7 6 6 7 6 7 7 5 4 5 5 5 6 6 6 11 11 9 4 5 5 4
6 5 6 7 7 6 5 5 6 8 8 7 8 8 9 9 8 5 5 7 4 6 6 6 8 11 13 9 3 5 4 5
5 6 6 7 7 6 6 6 7 7 8 7 7 8 9 8 6 5 6 6 5 6 6 6 8 9 14 13 5 4 4 4
8 9 8 9 9 9 8 10 10 9 9 8 7 7 6 8 6 6 5 6 6 5 8 6 6 10 13 14 14 11 5 6
9 10 8 8 9 10 11 10 11 10 9 9 8 7 6 6 7 5 4 5 7 6 7 8 4 4 12 15 14 14 7 3
9 9 10 9 9 9 11 10 10 10 10 9 6 7 5 6 6 6 6 6 7 7 8 7 5 5 3 4 4 9 7 7
8 9 10 10 10 9 10 10 11 10 10 9 7 5 7 6 7 7 8 9 8 8 7 5 8 6 9 7 3 4 6 4
8 9 10 10 10 10 9 10 10 10 8 7 7 6 6 6 7 14 19 20 21 22 15 7 16 18 16 15 15 15 15 5
9 9 9 9 9 9 11 10 10 9 9 7 7 6 6 6 5 7 6 12 15 17 18 21 20 20 19 17 17 18 15 6
7 7 7 8 8 9 10 10 9 9 10 6 6 6 6 5 4 4 5 5 4 5 10 14 14 12 12 13 13 4 3 0
6 6 6 7 9 10 10 10 10 8 6 7 5 5 6 5 4 3 3 3 4 2 4 6 8 9 10 12 2 1 1 1
Wind_Direction
304 259 224 185 118 30 36 237 280 298 291 301 312 286 284 287 278 273 268 273 285 284 280 282 280 283 276 276 275 281 280 275
300 288 169 148 234 267 281 273 274 282 296 293 276 289 284 276 268 267 273 277 284 283 280 280 280 276 270 270 279 279 282 282
296 276 258 259 260 246 253 244 248 262 250 259 288 272 283 265 276 270 275 274 275 279 279 282 284 282 274 278 280 286 290 288
337 296 273 271 258 246 245 254 256 241 245 267 268 278 269 272 275 283 281 277 278 282 287 296 290 286 284 286 304 295 289 287
346 333 309 278 257 253 257 239 245 236 241 249 254 253 258 275 274 270 265 266 288 286 284 277 282 293 298 308 310 299 292 295
322 300 301 292 271 253 247 245 227 229 242 248 248 250 264 259 258 264 261 268 268 286 295 296 299 283 287 299 306 311 312 305
297 294 306 296 282 255 247 239 192 229 242 252 249 245 247 251 257 264 273 274 272 272 271 286 284 302 317 323 269 288 300 310
303 301 299 299 296 269 245 212 217 230 245 248 241 245 242 239 243 248 252 249 265 271 265 272 272 299 309 318 244 262 274 283
299 306 299 291 301 288 253 226 226 239 248 245 238 242 243 242 243 247 233 247 250 262 259 260 273 290 294 307 296 275 273 273
294 290 308 315 310 305 293 261 249 250 245 239 231 241 237 240 242 243 238 244 243 248 258 256 264 280 286 295 293 294 291 283
320 308 328 324 321 307 297 283 265 266 256 237 231 232 238 239 241 237 231 252 240 259 249 256 270 274 277 277 261 281 284 295
331 319 311 318 328 320 299 292 284 279 272 260 236 231 235 239 229 235 244 249 253 265 266 255 251 266 269 263 251 244 267 274
344 335 334 339 341 336 331 332 324 312 300 281 258 248 239 224 235 232 232 245 261 271 279 261 249 251 264 260 257 258 242 255
341 332 337 341 343 335 331 329 326 316 302 290 280 267 243 230 242 236 217 235 254 254 266 275 251 235 264 261 261 263 264 241
340 340 335 340 337 333 328 325 318 313 312 302 282 279 251 253 246 238 234 233 243 244 253 262 268 262 226 238 256 269 270 273
341 338 331 330 333 332 330 327 325 318 317 316 304 281 279 254 248 242 244 229 242 241 237 232 265 258 258 247 217 217 233 236
336 335 332 330 330 330 332 325 323 321 321 314 309 306 298 280 277 259 262 261 258 265 256 244 248 266 270 272 270 267 266 251
329 325 324 325 324 325 328 323 320 311 311 308 305 302 302 307 293 298 291 271 285 291 287 270 267 270 273 273 269 270 272 262
316 311 319 320 321 328 321 318 314 308 300 300 305 314 320 313 304 318 317 312 305 306 313 325 318 307 308 305 302 323 331 1
310 315 322 328 321 326 324 324 320 318 323 330 317 319 321 323 319 305 300 295 301 308 338 10 1 353 339 319 321 285 282 269